Date String (YYYY-MM-DD hh:mm:ss) UTC,Instrument flags,absolute air pressure of the measurement (hPa),sample flow rate (lpm),inlet stack bypass flow (lpm),air temperature of the measurement (°C),ambient temperature measured by the external sensor (°C),aerosol sample conditioner tube jacket temperature (°C),OPC LED temperature (°C),internal box temperature (°C),relative humidity of the measurement (%),span deviation,mass concentration of particles derived from Lorenz-Mie calculation of OPC scattering (μg/m³),mass concentration of particles derived from Lorenz-Mie calculation of OPC scattering (μg/m³),mass concentration of particles derived from Lorenz-Mie calculation of OPC scattering (μg/m³)
DateTimeUTC,F1_M11,P_M11,Q1_M11,Q2_M11,T1_M11,T2_M11,T3_M11,T4_M11,T5_M11,U1_M11,ZSPAN_M11,X0_M11,X2_M11,X1_M11
2023-07-31 07:00:00,SystemResetWarning,0833.7,5.00,000.00,029.0,027.5,000.0,037.4,030.7,29.1,0000.0,0010.81,0005.20,0004.49
2023-07-31 07:01:00,SystemResetWarning,0833.7,5.00,000.00,029.0,027.7,000.0,037.4,030.8,28.9,0000.0,0010.66,0005.19,0004.49
2023-07-31 07:02:00,SystemResetWarning,0833.7,5.00,000.00,029.1,027.9,000.0,037.4,030.8,28.9,0000.0,0010.61,0005.23,0004.50
2023-07-31 07:03:00,SystemResetWarning,0833.7,5.00,000.00,029.1,028.0,000.0,037.5,030.9,29.0,0000.0,0009.85,0005.28,0004.52
2023-07-31 07:04:00,SystemResetWarning,0833.7,4.98,000.00,029.1,027.1,000.0,037.4,030.8,29.2,0000.0,0009.91,0005.30,0004.53
2023-07-31 07:05:00,SystemResetWarning,0833.7,5.01,000.00,029.1,025.7,000.0,037.3,030.6,29.1,0000.0,0010.40,0005.30,0004.53
2023-07-31 07:06:00,SystemResetWarning,0833.7,5.02,000.00,029.0,025.4,000.0,037.3,030.4,29.2,0000.0,0010.92,0005.30,0004.50
2023-07-31 07:07:00,SystemResetWarning,0833.7,4.99,000.00,029.0,025.6,000.0,037.3,030.3,29.3,0000.0,0010.90,0005.25,0004.47
2023-07-31 07:08:00,SystemResetWarning,0833.8,4.99,000.00,028.9,026.0,000.0,037.3,030.4,29.4,0000.0,0011.50,0005.21,0004.44
2023-07-31 07:09:00,SystemResetWarning,0833.8,5.01,000.00,028.9,026.4,000.0,037.4,030.5,29.4,0000.0,0012.08,0005.21,0004.42
2023-07-31 07:10:00,SystemResetWarning,0833.8,5.01,000.00,028.9,026.8,000.0,037.4,030.5,29.4,0000.0,0012.00,0005.22,0004.42
2023-07-31 07:11:00,SystemResetWarning,0833.8,4.99,000.00,029.0,027.1,000.0,037.4,030.6,29.3,0000.0,0011.84,0005.26,0004.43
2023-07-31 07:12:00,SystemResetWarning,0833.9,4.99,000.00,029.0,027.3,000.0,037.4,030.7,29.3,0000.0,0012.28,0005.30,0004.44
2023-07-31 07:13:00,SystemResetWarning,0833.9,5.01,000.00,029.0,027.6,000.0,037.4,030.7,29.2,0000.0,0012.19,0005.26,0004.43
2023-07-31 07:14:00,SystemResetWarning,0833.9,5.01,000.00,029.1,027.7,000.0,037.4,030.8,29.3,0000.0,0012.17,0005.18,0004.41
2023-07-31 07:15:00,SystemResetWarning,0833.8,4.99,000.00,029.1,027.9,000.0,037.5,030.8,29.2,0000.0,0012.38,0005.14,0004.39
2023-07-31 07:16:00,SystemResetWarning,0833.9,4.99,000.00,029.2,028.0,000.0,037.5,030.9,29.2,0000.0,0011.91,0005.10,0004.40
2023-07-31 07:17:00,SystemResetWarning,0833.8,5.00,000.00,029.2,027.6,000.0,037.5,030.9,29.3,0000.0,0011.38,0005.11,0004.42
2023-07-31 07:18:00,SystemResetWarning,0833.7,5.01,000.00,029.2,026.0,000.0,037.4,030.6,29.2,0000.0,0011.39,0005.13,0004.43
2023-07-31 07:19:00,SystemResetWarning,0833.8,5.01,000.00,029.1,025.3,000.0,037.3,030.4,29.3,0000.0,0010.89,0005.16,0004.44
2023-07-31 07:20:00,SystemResetWarning,0833.8,5.01,000.00,029.0,025.5,000.0,037.3,030.2,29.6,0000.0,0010.12,0005.14,0004.45
2023-07-31 07:21:00,SystemResetWarning,0833.8,5.01,000.00,028.9,025.8,000.0,037.3,030.3,29.8,0000.0,0009.95,0005.10,0004.44
2023-07-31 07:22:00,SystemResetWarning,0833.8,4.99,000.00,028.9,026.3,000.0,037.4,030.4,29.9,0000.0,0009.92,0005.09,0004.43
2023-07-31 07:23:00,SystemResetWarning,0833.8,5.00,000.00,028.9,026.6,000.0,037.4,030.5,29.9,0000.0,0008.94,0005.04,0004.42
2023-07-31 07:24:00,SystemResetWarning,0833.8,5.00,000.00,029.0,027.0,000.0,037.4,030.6,29.8,0000.0,0008.91,0005.06,0004.41
2023-07-31 07:25:00,SystemResetWarning,0833.8,5.01,000.00,029.0,027.2,000.0,037.4,030.6,29.9,0000.0,0008.89,0005.06,0004.42
2023-07-31 07:26:00,SystemResetWarning,0833.8,4.99,000.00,029.0,027.5,000.0,037.4,030.7,29.9,0000.0,0008.69,0005.04,0004.42
2023-07-31 07:27:00,SystemResetWarning,0833.8,4.99,000.00,029.1,027.6,000.0,037.4,030.7,29.9,0000.0,0008.91,0005.05,0004.41
2023-07-31 07:28:00,SystemResetWarning,0833.7,5.01,000.00,029.1,027.8,000.0,037.5,030.8,29.8,0000.0,0008.87,0005.03,0004.40
2023-07-31 07:29:00,SystemResetWarning,0833.8,5.01,000.00,029.1,028.0,000.0,037.5,030.8,29.7,0000.0,0009.23,0005.00,0004.39
2023-07-31 07:30:00,SystemResetWarning,0833.8,5.00,000.00,029.2,028.1,000.0,037.5,030.9,29.6,0000.0,0009.08,0004.95,0004.39
2023-07-31 07:31:00,SystemResetWarning,0833.8,4.98,000.00,029.2,027.5,000.0,037.5,030.9,29.6,0000.0,0009.03,0004.94,0004.40
2023-07-31 07:32:00,SystemResetWarning,0833.8,4.99,000.00,029.2,025.9,000.0,037.4,030.6,29.5,0000.0,0009.08,0004.96,0004.41
2023-07-31 07:33:00,SystemResetWarning,0833.8,5.01,000.00,029.1,025.4,000.0,037.3,030.4,29.0,0000.0,0009.68,0004.96,0004.41
2023-07-31 07:34:00,SystemResetWarning,0833.8,5.01,000.00,029.0,025.6,000.0,037.4,030.3,29.0,0000.0,0009.81,0004.98,0004.40
2023-07-31 07:35:00,SystemResetWarning,0833.8,4.99,000.00,029.0,026.0,000.0,037.4,030.4,29.2,0000.0,0009.90,0004.97,0004.40
2023-07-31 07:36:00,SystemResetWarning,0833.9,5.00,000.00,029.0,026.4,000.0,037.4,030.4,28.4,0000.0,0010.00,0005.00,0004.40
2023-07-31 07:37:00,SystemResetWarning,0833.9,5.01,000.00,029.0,026.7,000.0,037.4,030.5,28.5,0000.0,0010.05,0005.05,0004.39
2023-07-31 07:38:00,SystemResetWarning,0833.8,5.00,000.00,029.0,027.0,000.0,037.4,030.6,28.4,0000.0,0010.07,0005.10,0004.39
2023-07-31 07:39:00,SystemResetWarning,0833.8,4.99,000.00,029.0,027.3,000.0,037.4,030.6,27.6,0000.0,0010.67,0005.12,0004.40
2023-07-31 07:40:00,SystemResetWarning,0833.8,4.99,000.00,029.1,027.5,000.0,037.4,030.7,27.4,0000.0,0010.25,0005.11,0004.40
2023-07-31 07:41:00,SystemResetWarning,0833.8,4.99,000.00,029.1,027.7,000.0,037.5,030.7,27.4,0000.0,0010.92,0005.19,0004.41
2023-07-31 07:42:00,SystemResetWarning,0833.8,5.02,000.00,029.1,027.8,000.0,037.5,030.8,27.5,0000.0,0011.07,0005.22,0004.41
2023-07-31 07:43:00,SystemResetWarning,0833.8,5.01,000.00,029.2,027.9,000.0,037.5,030.8,27.6,0000.0,0011.25,0005.24,0004.43
2023-07-31 07:44:00,SystemResetWarning,0833.8,4.99,000.00,029.2,028.1,000.0,037.5,030.9,27.5,0000.0,0010.93,0005.28,0004.45
2023-07-31 07:45:00,SystemResetWarning,0833.8,4.99,000.00,029.2,028.2,000.0,037.6,030.9,27.4,0000.0,0011.51,0005.28,0004.46
2023-07-31 07:46:00,SystemResetWarning,0833.8,5.00,000.00,029.3,027.4,000.0,037.5,030.9,27.3,0000.0,0011.33,0005.23,0004.47
2023-07-31 07:47:00,SystemResetWarning,0833.8,5.00,000.00,029.2,025.8,000.0,037.4,030.6,27.2,0000.0,0011.49,0005.24,0004.48
2023-07-31 07:48:00,SystemResetWarning,0833.8,5.00,000.00,029.1,025.3,000.0,037.4,030.4,27.0,0000.0,0012.02,0005.24,0004.50
2023-07-31 07:49:00,SystemResetWarning,0833.7,5.01,000.00,029.0,025.6,000.0,037.4,030.3,27.0,0000.0,0013.12,0005.20,0004.51
2023-07-31 07:50:00,SystemResetWarning,0833.7,5.00,000.00,029.0,025.9,000.0,037.4,030.3,27.3,0000.0,0012.75,0005.21,0004.52
2023-07-31 07:51:00,SystemResetWarning,0833.8,4.99,000.00,029.0,026.3,000.0,037.4,030.4,27.3,0000.0,0012.67,0005.21,0004.53
2023-07-31 07:52:00,SystemResetWarning,0833.8,5.00,000.00,029.0,026.7,000.0,037.4,030.5,27.3,0000.0,0012.15,0005.17,0004.51
2023-07-31 07:53:00,SystemResetWarning,0833.8,5.00,000.00,029.0,027.0,000.0,037.5,030.6,27.3,0000.0,0012.16,0005.18,0004.50
2023-07-31 07:54:00,SystemResetWarning,0833.8,5.01,000.00,029.0,027.2,000.0,037.5,030.7,27.1,0000.0,0012.01,0005.15,0004.47
2023-07-31 07:55:00,SystemResetWarning,0833.8,4.99,000.00,029.1,027.5,000.0,037.5,030.7,27.1,0000.0,0011.72,0005.10,0004.43
2023-07-31 07:56:00,SystemResetWarning,0833.8,4.99,000.00,029.1,027.6,000.0,037.5,030.7,27.0,0000.0,0011.10,0005.09,0004.41
2023-07-31 07:57:00,SystemResetWarning,0833.8,5.00,000.00,029.1,027.8,000.0,037.5,030.8,26.8,0000.0,0011.38,0005.07,0004.39
2023-07-31 07:58:00,SystemResetWarning,0833.7,5.00,000.00,029.2,027.9,000.0,037.5,030.8,26.8,0000.0,0011.37,0005.01,0004.32
2023-07-31 07:59:00,SystemResetWarning,0833.8,5.01,000.00,029.2,028.0,000.0,037.5,030.9,26.7,0000.0,0010.77,0004.91,0004.25
